| time (UTC) | temp F | wind direction | speed knots | gust knots | rain 1hr in | rain 24hr in | rain mn in | humidity % | barometer mb |
| 20260505235649 | 76 | 227 | 8.7 | 12.2 | 0.00 | 0.09 | 0.09 | 36 | 1043.6 |
| 20260505234652 | 77 | 228 | 11.3 | 13.9 | 0.00 | 0.09 | 0.09 | 35 | 1043.5 |
| 20260505233748 | 77 | 230 | 10.4 | 13.9 | 0.00 | 0.09 | 0.09 | 35 | 1043.6 |
| 20260505232848 | 77 | 231 | 9.6 | 12.2 | 0.00 | 0.09 | 0.09 | 34 | 1043.5 |
| 20260505230851 | 78 | 224 | 11.3 | 17.4 | 0.00 | 0.09 | 0.09 | 32 | 1043.6 |
| 20260505225949 | 78 | 240 | 10.4 | 13.0 | 0.00 | 0.09 | 0.09 | 32 | 1043.3 |
| 20260505225048 | 79 | 241 | 12.2 | 17.4 | 0.00 | 0.09 | 0.09 | 31 | 1043.1 |
| 20260505224049 | 79 | 258 | 10.4 | 14.8 | 0.00 | 0.09 | 0.09 | 31 | 1043.3 |
| 20260505223052 | 79 | 227 | 13.9 | 19.1 | 0.00 | 0.09 | 0.09 | 32 | 1043.1 |
| 20260505221149 | 79 | 243 | 12.2 | 16.5 | 0.00 | 0.09 | 0.09 | 32 | 1042.8 |
| 20260505220148 | 79 | 241 | 11.3 | 15.6 | 0.00 | 0.09 | 0.09 | 32 | 1043.2 |
| 20260505215148 | 79 | 264 | 13.9 | 22.6 | 0.00 | 0.09 | 0.09 | 32 | 1043.2 |
| 20260505214150 | 79 | 236 | 7.8 | 11.3 | 0.00 | 0.09 | 0.09 | 32 | 1043.3 |
| 20260505213248 | 79 | 246 | 13.9 | 17.4 | 0.00 | 0.09 | 0.09 | 32 | 1043.3 |
| 20260505212348 | 79 | 226 | 17.4 | 24.3 | 0.00 | 0.09 | 0.09 | 32 | 1043.2 |
| 20260505211350 | 79 | 268 | 9.6 | 13.9 | 0.00 | 0.09 | 0.09 | 31 | 1043.0 |
| 20260505210352 | 79 | 274 | 13.0 | 18.2 | 0.00 | 0.09 | 0.09 | 32 | 1042.9 |
| 20260505205349 | 79 | 246 | 14.8 | 20.9 | 0.00 | 0.09 | 0.09 | 30 | 1043.2 |
| 20260505204349 | 80 | 250 | 14.8 | 22.6 | 0.00 | 0.09 | 0.09 | 31 | 1043.2 |
| 20260505203350 | 79 | 214 | 13.9 | 19.1 | 0.00 | 0.09 | 0.09 | 30 | 1043.0 |
| 20260505202448 | 80 | 226 | 13.9 | 21.7 | 0.00 | 0.09 | 0.09 | 30 | 1043.2 |
| 20260505201450 | 79 | 267 | 13.9 | 16.5 | 0.00 | 0.09 | 0.09 | 30 | 1043.2 |
| 20260505200450 | 79 | 226 | 14.8 | 22.6 | 0.00 | 0.09 | 0.09 | 28 | 1043.2 |
| 20260505195450 | 80 | 234 | 14.8 | 21.7 | 0.00 | 0.09 | 0.09 | 29 | 1043.3 |
| 20260505195348 | 80 | 233 | 17.4 | 26.1 | 0.00 | 0.09 | 0.09 | 29 | 1043.3 |
| 20260505193350 | 80 | 244 | 13.9 | 20.0 | 0.00 | 0.09 | 0.09 | 28 | 1043.3 |
| 20260505192449 | 80 | 258 | 14.8 | 20.9 | 0.00 | 0.09 | 0.09 | 27 | 1043.3 |
| 20260505191549 | 80 | 232 | 13.9 | 20.9 | 0.00 | 0.09 | 0.09 | 27 | 1043.3 |
| 20260505190647 | 80 | 241 | 14.8 | 20.0 | 0.00 | 0.09 | 0.09 | 28 | 1043.3 |
| 20260505185650 | 80 | 230 | 11.3 | 14.8 | 0.00 | 0.09 | 0.09 | 29 | 1043.6 |
| 20260505184649 | 80 | 215 | 13.9 | 20.0 | 0.00 | 0.09 | 0.09 | 28 | 1043.6 |
| 20260505183650 | 80 | 228 | 10.4 | 13.9 | 0.00 | 0.09 | 0.09 | 30 | 1043.6 |
| 20260505181749 | 80 | 246 | 15.6 | 20.9 | 0.00 | 0.09 | 0.09 | 29 | 1044.0 |
| 20260505180748 | 80 | 243 | 13.9 | 20.9 | 0.00 | 0.09 | 0.09 | 30 | 1044.2 |
| 20260505175749 | 79 | 250 | 16.5 | 23.5 | 0.00 | 0.09 | 0.09 | 33 | 1044.2 |
| 20260505172847 | 80 | 246 | 10.4 | 13.9 | 0.00 | 0.09 | 0.09 | 35 | 1044.2 |
| 20260505171850 | 79 | 240 | 11.3 | 18.2 | 0.00 | 0.09 | 0.09 | 35 | 1044.3 |
| 20260505165949 | 78 | 311 | 6.1 | 9.6 | 0.00 | 0.09 | 0.09 | 38 | 1044.5 |
| 20260505164951 | 78 | 262 | 5.2 | 10.4 | 0.00 | 0.09 | 0.09 | 39 | 1045.0 |
| 20260505163950 | 77 | 312 | 6.1 | 8.7 | 0.00 | 0.09 | 0.09 | 39 | 1044.9 |
| 20260505162047 | 77 | 232 | 10.4 | 13.0 | 0.00 | 0.09 | 0.09 | 40 | 1045.3 |
| 20260505161105 | 77 | 215 | 9.6 | 13.0 | 0.00 | 0.09 | 0.09 | 40 | 1045.0 |
| 20260505160152 | 77 | 242 | 12.2 | 15.6 | 0.00 | 0.09 | 0.09 | 41 | 1045.2 |
| 20260505153149 | 75 | 305 | 7.0 | 9.6 | 0.00 | 0.09 | 0.09 | 43 | 1045.6 |
| 20260505152148 | 75 | 301 | 7.0 | 12.2 | 0.00 | 0.09 | 0.09 | 44 | 1045.6 |
| 20260505150249 | 74 | 277 | 2.6 | 6.1 | 0.00 | 0.09 | 0.09 | 47 | 1045.9 |
| 20260505140448 | 69 | 298 | 7.8 | 10.4 | 0.00 | 0.09 | 0.09 | 53 | 1046.4 |
| 20260505124549 | 62 | 216 | 2.6 | 4.3 | 0.00 | 0.09 | 0.09 | 70 | 1046.5 |
| 20260505123549 | 61 | 199 | 1.7 | 2.6 | 0.00 | 0.09 | 0.09 | 69 | 1046.6 |
| 20260505122549 | 61 | 234 | 2.6 | 4.3 | 0.00 | 0.09 | 0.09 | 72 | 1046.5 |
| 20260505121550 | 60 | 217 | 2.6 | 3.5 | 0.00 | 0.09 | 0.09 | 74 | 1046.3 |
| 20260505120550 | 59 | 245 | 3.5 | 5.2 | 0.00 | 0.09 | 0.09 | 88 | 1046.3 |
| 20260505115648 | 58 | 360 | 0.0 | 0.0 | 0.00 | 0.09 | 0.09 | 93 | 1046.1 |
| 20260505114649 | 57 | 283 | 0.0 | 0.0 | 0.00 | 0.09 | 0.09 | 93 | 1045.8 |
| 20260505113650 | 55 | 22 | 0.0 | 0.9 | 0.00 | 0.09 | 0.09 | 91 | 1046.0 |
| 20260505112650 | 55 | 247 | 0.0 | 0.0 | 0.00 | 0.09 | 0.09 | 93 | 1045.9 |
| 20260505111647 | 54 | 45 | 0.0 | 0.0 | 0.00 | 0.09 | 0.09 | 94 | 1045.9 |
| 20260505110747 | 53 | 45 | 0.0 | 0.0 | 0.00 | 0.09 | 0.09 | 94 | 1045.9 |
| 20260505101949 | 52 | 22 | 0.0 | 0.9 | 0.01 | 0.09 | 0.09 | 92 | 1045.3 |
| 20260505100948 | 52 | 45 | 0.0 | 0.0 | 0.05 | 0.09 | 0.09 | 92 | 1045.3 |
| 20260505095951 | 52 | 45 | 0.0 | 0.0 | 0.08 | 0.08 | 0.08 | 91 | 1045.4 |
| 20260505094948 | 52 | 45 | 0.0 | 0.9 | 0.08 | 0.08 | 0.08 | 91 | 1045.5 |
| 20260505093950 | 52 | 67 | 2.6 | 3.5 | 0.08 | 0.08 | 0.08 | 88 | 1045.2 |
| 20260505092950 | 53 | 163 | 1.7 | 3.5 | 0.08 | 0.08 | 0.08 | 85 | 1045.7 |
| 20260505091949 | 54 | 67 | 0.9 | 1.7 | 0.08 | 0.08 | 0.08 | 83 | 1045.4 |
| 20260505085147 | 55 | 29 | 1.7 | 2.6 | 0.00 | 0.00 | 0.00 | 74 | 1045.2 |
| 20260505084150 | 56 | 360 | 0.9 | 1.7 | 0.00 | 0.00 | 0.00 | 70 | 1045.1 |
| 20260505083148 | 56 | 90 | 0.9 | 1.7 | 0.00 | 0.00 | 0.00 | 69 | 1045.0 |
| 20260505082148 | 57 | 45 | 2.6 | 3.5 | 0.00 | 0.00 | 0.00 | 66 | 1044.8 |
| 20260505081149 | 59 | 219 | 0.0 | 0.9 | 0.00 | 0.00 | 0.00 | 62 | 1044.9 |
| 20260505075248 | 59 | 319 | 0.9 | 2.6 | 0.00 | 0.00 | 0.00 | 61 | 1045.0 |
| 20260505073251 | 59 | 202 | 0.0 | 0.0 | 0.00 | 0.00 | 0.00 | 60 | 1045.0 |
| 20260505071349 | 59 | 100 | 0.0 | 0.0 | 0.00 | 0.00 | 0.00 | 58 | 1045.0 |
| 20260505070348 | 59 | 67 | 0.0 | 0.0 | 0.00 | 0.00 | 0.00 | 57 | 1045.0 |
| 20260505065351 | 59 | 180 | 0.9 | 1.7 | 0.00 | 0.00 | 0.00 | 57 | 1044.9 |
| 20260505064351 | 59 | 180 | 1.7 | 2.6 | 0.00 | 0.00 | 0.00 | 57 | 1045.1 |
| 20260505063449 | 59 | 225 | 0.0 | 0.0 | 0.00 | 0.00 | 0.00 | 56 | 1044.9 |
| 20260505062449 | 59 | 225 | 0.0 | 0.0 | 0.00 | 0.00 | 0.00 | 56 | 1045.0 |
| 20260505052650 | 60 | 45 | 0.0 | 0.0 | 0.00 | 0.00 | 0.00 | 53 | 1045.0 |
| 20260505051748 | 60 | 225 | 1.7 | 2.6 | 0.00 | 0.00 | 0.00 | 53 | 1045.0 |
| 20260505040751 | 61 | 199 | 3.5 | 7.8 | 0.00 | 0.00 | 0.00 | 51 | 1044.8 |
| 20260505035829 | 61 | 202 | 0.9 | 2.6 | 0.00 | 0.00 | 0.00 | 50 | 1044.8 |
| 20260505033832 | 62 | 182 | 0.9 | 2.6 | 0.00 | 0.00 | 0.00 | 48 | 1044.8 |
| 20260505032929 | 62 | 203 | 2.6 | 6.1 | 0.00 | 0.00 | 0.00 | 48 | 1044.9 |
| 20260505031029 | 63 | 219 | 4.3 | 5.2 | 0.00 | 0.00 | 0.00 | 47 | 1045.0 |
| 20260505025031 | 63 | 228 | 2.6 | 3.5 | 0.00 | 0.00 | 0.00 | 46 | 1045.1 |
| 20260505024032 | 63 | 216 | 6.1 | 8.7 | 0.00 | 0.00 | 0.00 | 46 | 1045.2 |
| 20260505023031 | 63 | 219 | 2.6 | 3.5 | 0.00 | 0.00 | 0.00 | 46 | 1045.2 |
| 20260505021030 | 63 | 215 | 4.3 | 7.0 | 0.00 | 0.00 | 0.00 | 45 | 1045.4 |
| 20260505015030 | 63 | 180 | 0.9 | 1.7 | 0.00 | 0.00 | 0.00 | 45 | 1045.3 |
| 20260505014030 | 63 | 202 | 1.7 | 2.6 | 0.00 | 0.00 | 0.00 | 45 | 1045.2 |
| 20260505013031 | 63 | 214 | 1.7 | 4.3 | 0.00 | 0.00 | 0.00 | 44 | 1045.2 |
| 20260505012029 | 64 | 211 | 1.7 | 2.6 | 0.00 | 0.00 | 0.00 | 43 | 1045.1 |
| 20260505011033 | 64 | 202 | 0.9 | 1.7 | 0.00 | 0.00 | 0.00 | 43 | 1045.0 |
| 20260505010033 | 64 | 225 | 0.9 | 1.7 | 0.00 | 0.00 | 0.00 | 43 | 1044.9 |
| 20260505004130 | 64 | 180 | 0.9 | 1.7 | 0.00 | 0.00 | 0.00 | 42 | 1044.7 |
| 20260505003131 | 65 | 225 | 0.9 | 1.7 | 0.00 | 0.00 | 0.00 | 42 | 1044.8 |
| 20260505002130 | 65 | 246 | 0.9 | 2.6 | 0.00 | 0.00 | 0.00 | 41 | 1044.6 |
| 20260505001131 | 66 | 209 | 2.6 | 3.5 | 0.00 | 0.00 | 0.00 | 39 | 1044.5 |
| 20260505000129 | 67 | 225 | 5.2 | 7.0 | 0.00 | 0.00 | 0.00 | 39 | 1044.5 |